NIGCOMSAT 1R

Last updated on Thu Nov 21 2024 00:02:42 GMT+0000 (Coordinated Universal Time)

1 38014U 11077A 24325.23105135 .00000146 00000+0 00000+0 0 9997 2 38014 0.0462 108.7440 0004493 182.8440 253.8511 1.00274311 47208
UTC large
Height (km)
Speed (km/s)
/
Latitude / Longitude
Inclination (degrees)
Orbital Period (minutes)
Azimuth
Elevation
Range (km)
Doppler Factor

Next 0 passes for location: London (51.5072 / 0.1276)

Sorry there are no passes over London.